Tiempo cada hora Almazar

Hoy, 27 Julio, Martes

Tiempo Temperatura Precipitaciones Viento Presión Humedad
00:00 +33°C° 0 mm 4 mps 726 mmHg 27%
01:00 +33°C° 0 mm 4 mps 725 mmHg 28%
02:00 +32°C° 0 mm 4 mps 725 mmHg 30%
03:00 +30°C° 0 mm 4 mps 726 mmHg 31%
04:00 +29°C° 0 mm 4 mps 726 mmHg 33%
05:00 +28°C° 0 mm 5 mps 726 mmHg 35%
06:00 +30°C° 0 mm 5 mps 726 mmHg 30%
07:00 +32°C° 0 mm 5 mps 726 mmHg 25%
08:00 +34°C° 0 mm 5 mps 727 mmHg 21%
09:00 +35°C° 0 mm 5 mps 726 mmHg 19%
10:00 +37°C° 0 mm 5 mps 726 mmHg 17%
11:00 +40°C° 0 mm 5 mps 726 mmHg 15%
12:00 +42°C° 0 mm 5 mps 725 mmHg 14%
13:00 +45°C° 0 mm 5 mps 725 mmHg 13%
14:00 +45°C° 0 mm 4 mps 724 mmHg 12%
15:00 +47°C° 0 mm 5 mps 723 mmHg 12%
16:00 +47°C° 0 mm 6 mps 723 mmHg 12%
17:00 +47°C° 0 mm 7 mps 722 mmHg 12%
18:00 +44°C° 0 mm 6 mps 723 mmHg 14%
19:00 +41°C° 0 mm 6 mps 723 mmHg 16%
20:00 +39°C° 0 mm 5 mps 723 mmHg 19%
21:00 +36°C° 0 mm 5 mps 724 mmHg 20%
22:00 +34°C° 0 mm 5 mps 724 mmHg 21%
23:00 +32°C° 0 mm 4 mps 725 mmHg 22%

Mañana, 28 Julio, Miércoles

Tiempo Temperatura Precipitaciones Viento Presión Humedad
00:00 +30°C° 0 mm 4 mps 725 mmHg 22%
01:00 +29°C° 0 mm 4 mps 725 mmHg 21%
02:00 +27°C° 0 mm 4 mps 725 mmHg 21%
03:00 +27°C° 0 mm 3 mps 725 mmHg 22%
04:00 +26°C° 0 mm 3 mps 725 mmHg 23%
05:00 +25°C° 0 mm 3 mps 725 mmHg 24%
06:00 +26°C° 0 mm 4 mps 725 mmHg 22%
07:00 +28°C° 0 mm 4 mps 726 mmHg 20%
08:00 +29°C° 0 mm 4 mps 726 mmHg 18%
09:00 +32°C° 0 mm 4 mps 726 mmHg 16%
10:00 +35°C° 0 mm 5 mps 726 mmHg 15%
11:00 +37°C° 0 mm 5 mps 725 mmHg 14%
12:00 +39°C° 0 mm 5 mps 725 mmHg 13%
13:00 +41°C° 0 mm 4 mps 724 mmHg 11%
14:00 +42°C° 0 mm 4 mps 724 mmHg 10%
15:00 +43°C° 0 mm 4 mps 724 mmHg 9%
16:00 +43°C° 0 mm 5 mps 723 mmHg 9%
17:00 +43°C° 0 mm 5 mps 723 mmHg 9%
18:00 +41°C° 0 mm 5 mps 723 mmHg 10%
19:00 +37°C° 0 mm 4 mps 723 mmHg 12%
20:00 +35°C° 0 mm 4 mps 723 mmHg 13%
21:00 +33°C° 0 mm 4 mps 724 mmHg 14%
22:00 +30°C° 0 mm 4 mps 724 mmHg 15%
23:00 +28°C° 0 mm 3 mps 725 mmHg 15%

Pasado mañana, 29 Julio, Jueves

Tiempo Temperatura Precipitaciones Viento Presión Humedad
00:00 +28°C° 0 mm 3 mps 725 mmHg 16%
01:00 +27°C° 0 mm 3 mps 725 mmHg 17%
02:00 +26°C° 0 mm 3 mps 725 mmHg 18%
03:00 +25°C° 0 mm 3 mps 725 mmHg 19%
04:00 +24°C° 0 mm 3 mps 726 mmHg 20%
05:00 +22°C° 0 mm 3 mps 726 mmHg 21%
06:00 +25°C° 0 mm 3 mps 726 mmHg 19%
07:00 +27°C° 0 mm 3 mps 727 mmHg 17%
08:00 +29°C° 0 mm 3 mps 727 mmHg 15%
09:00 +33°C° 0 mm 4 mps 727 mmHg 13%
10:00 +35°C° 0 mm 4 mps 727 mmHg 12%
11:00 +37°C° 0 mm 4 mps 727 mmHg 10%
12:00 +39°C° 0 mm 5 mps 727 mmHg 9%
13:00 +40°C° 0 mm 5 mps 726 mmHg 8%
14:00 +42°C° 0 mm 6 mps 726 mmHg 7%
15:00 +41°C° 0 mm 6 mps 726 mmHg 8%
16:00 +41°C° 0 mm 6 mps 726 mmHg 9%
17:00 +41°C° 0 mm 7 mps 726 mmHg 10%
18:00 +38°C° 0 mm 6 mps 727 mmHg 12%
19:00 +35°C° 0 mm 6 mps 727 mmHg 14%
20:00 +33°C° 0 mm 5 mps 727 mmHg 15%
21:00 +30°C° 0 mm 5 mps 728 mmHg 17%
22:00 +28°C° 0 mm 4 mps 728 mmHg 19%
23:00 +26°C° 0 mm 3 mps 728 mmHg 20%

30 Julio, Viernes

Tiempo Temperatura Precipitaciones Viento Presión Humedad
00:00 +26°C° 0 mm 3 mps 729 mmHg 21%
01:00 +25°C° 0 mm 3 mps 729 mmHg 22%
02:00 +25°C° 0 mm 3 mps 729 mmHg 23%
03:00 +24°C° 0 mm 3 mps 729 mmHg 23%
04:00 +24°C° 0 mm 2 mps 729 mmHg 24%
05:00 +24°C° 0 mm 2 mps 729 mmHg 24%
06:00 +26°C° 0 mm 2 mps 729 mmHg 22%
07:00 +27°C° 0 mm 2 mps 730 mmHg 20%
08:00 +29°C° 0 mm 2 mps 730 mmHg 18%
09:00 +31°C° 0 mm 3 mps 730 mmHg 16%
10:00 +34°C° 0 mm 3 mps 730 mmHg 15%
11:00 +36°C° 0 mm 3 mps 730 mmHg 13%
12:00 +37°C° 0 mm 3 mps 729 mmHg 12%
13:00 +38°C° 0 mm 3 mps 728 mmHg 11%
14:00 +39°C° 0 mm 2 mps 728 mmHg 10%
15:00 +40°C° 0 mm 2 mps 727 mmHg 9%
16:00 +40°C° 0 mm 2 mps 727 mmHg 9%
17:00 +41°C° 0 mm 2 mps 727 mmHg 8%
18:00 +38°C° 0 mm 2 mps 727 mmHg 10%
19:00 +35°C° 0 mm 2 mps 726 mmHg 12%
20:00 +31°C° 0 mm 2 mps 726 mmHg 13%
21:00 +30°C° 0 mm 2 mps 726 mmHg 15%
22:00 +29°C° 0 mm 2 mps 726 mmHg 16%
23:00 +28°C° 0 mm 2 mps 726 mmHg 17%

31 Julio, Sábado

Tiempo Temperatura Precipitaciones Viento Presión Humedad
00:00 +27°C° 0 mm 2 mps 726 mmHg 19%
01:00 +26°C° 0 mm 2 mps 726 mmHg 20%
02:00 +25°C° 0 mm 2 mps 726 mmHg 21%
03:00 +25°C° 0 mm 2 mps 726 mmHg 23%
04:00 +24°C° 0 mm 3 mps 726 mmHg 24%
05:00 +22°C° 0 mm 3 mps 727 mmHg 26%
06:00 +25°C° 0 mm 3 mps 727 mmHg 23%
07:00 +27°C° 0 mm 3 mps 727 mmHg 21%
08:00 +30°C° 0 mm 3 mps 728 mmHg 19%
09:00 +33°C° 0 mm 3 mps 728 mmHg 16%
10:00 +35°C° 0 mm 2 mps 727 mmHg 14%
11:00 +38°C° 0 mm 2 mps 727 mmHg 11%
12:00 +39°C° 0 mm 2 mps 726 mmHg 10%
13:00 +40°C° 0 mm 2 mps 726 mmHg 10%
14:00 +42°C° 0 mm 2 mps 725 mmHg 9%
15:00 +42°C° 0 mm 2 mps 725 mmHg 9%
16:00 +42°C° 0 mm 2 mps 725 mmHg 8%
17:00 +43°C° 0 mm 2 mps 724 mmHg 8%
18:00 +40°C° 0 mm 2 mps 724 mmHg 10%
19:00 +38°C° 0 mm 3 mps 724 mmHg 12%
20:00 +35°C° 0 mm 3 mps 724 mmHg 13%
21:00 +34°C° 0 mm 2 mps 724 mmHg 15%
22:00 +31°C° 0 mm 2 mps 724 mmHg 16%
23:00 +30°C° 0 mm 2 mps 724 mmHg 17%

1 Agosto, Domingo

Tiempo Temperatura Precipitaciones Viento Presión Humedad
00:00 +29°C° 0 mm 2 mps 724 mmHg 17%
01:00 +29°C° 0 mm 2 mps 724 mmHg 17%
02:00 +29°C° 0 mm 2 mps 724 mmHg 18%
03:00 +28°C° 0 mm 3 mps 724 mmHg 19%
04:00 +27°C° 0 mm 3 mps 724 mmHg 20%
05:00 +26°C° 0 mm 3 mps 724 mmHg 21%
06:00 +28°C° 0 mm 3 mps 725 mmHg 18%
07:00 +29°C° 0 mm 3 mps 725 mmHg 16%
08:00 +32°C° 0 mm 4 mps 726 mmHg 13%
09:00 +35°C° 0 mm 4 mps 726 mmHg 12%
10:00 +37°C° 0 mm 4 mps 726 mmHg 10%
11:00 +41°C° 0 mm 4 mps 725 mmHg 8%
12:00 +42°C° 0 mm 4 mps 725 mmHg 8%
13:00 +43°C° 0 mm 4 mps 725 mmHg 7%
14:00 +45°C° 0 mm 4 mps 724 mmHg 7%
15:00 +45°C° 0 mm 4 mps 724 mmHg 7%
16:00 +45°C° 0 mm 4 mps 724 mmHg 7%
17:00 +45°C° 0 mm 4 mps 724 mmHg 7%
18:00 +42°C° 0 mm 4 mps 723 mmHg 10%
19:00 +38°C° 0 mm 4 mps 723 mmHg 12%
20:00 +36°C° 0 mm 5 mps 723 mmHg 15%
21:00 +35°C° 0 mm 4 mps 723 mmHg 16%
22:00 +33°C° 0 mm 4 mps 723 mmHg 17%
23:00 +32°C° 0 mm 4 mps 723 mmHg 18%
Mostrar más

Necesitamos Su Consentimiento

Meteoprog y nuestros Proveedores de Servicios pueden almacenar y acceder a sus datos personales como cookies, identificadores de dispositivo u otras tecnologías similares de su dispositivo y procesar dichos datos para personalizar contenido y anuncios, además de ofrecer funciones de redes sociales y analizar el tráfico.

  • Almacenar y/o acceder a información en su dispositivo

    Se puede almacenar o acceder a cookies, identificadores de dispositivo u otra información de su dispositivo para los fines anteriormente indicados.

  • Anuncios y contenido personalizados, medición de anuncios y contenido, percepciones del público, y desarrollo de productos

    Los anuncios y el contenido pueden personalizarse en base a su perfil. Se pueden añadir más datos para personalizar mejor los anuncios y contenidos. Se puede medir el rendimiento de los anuncios y contenidos. Se puede obtener la percepción sobre el público que ha visto los anuncios y contenidos. Dichos datos pueden usarse para desarrollar o mejorar la experiencia del usuario, sistemas y software.

Al hacer clic en ‘Estoy De Acuerdo’ usted permitirá el uso de las cookies, identificadores de dispositivo, balizas web u otras tecnologías similares indicadas. Su configuración puede cambiarse desde el navegador de su dispositivo.

Para ciertos fines, los intereses legítimos pueden ser considerados por encima del consentimiento. Puede leer más sobre ello en nuestra Política de Privacidad y Cookies.